Location: Elbart
(49.6135°N, 11.9134°E)
Time: 09:29:17
(UTC+00:00)

STARLINK-1214 - Pass Details

Date: 09 April 2020
Orbit: 375 x 384 km, 53.0° (Epoch: 25 May)

Event Time Altitude Azimuth Distance (km) Brightness Sun altitude
Rises 18:25:06 0° 292° (WNW) 2,269 9.7 -5.2°
Reaches altitude 10° 18:27:10 10° 293° (WNW) 1,414 7.6 -5.5°
Maximum altitude 18:30:20 85° 20° (NNE) 393 2.9 -6.0°
Drops below altitude 10° 18:33:29 10° 111° (ESE) 1,410 5.0 -6.5°
Enters shadow 18:33:43 - 111° (ESE) 1,502 5.1 -6.5°
